"Pseudo-MPEC" for P22oVW7

Created 2026 Aug 8 12:35:11 UT using Find_Orb

Click here for an explanation of pseudo-MPECs

 
 Astrometry: 
     P22oVW7*0C2026 08 07.47424923 24 24.003-15 43 34.20   ~87Ko 21.79wXNEOCPF52
     P22oVW7 0C2026 08 07.48585623 24 23.568-15 43 39.79   ~87Ko 21.68wXNEOCPF52
     P22oVW7 0C2026 08 07.49742623 24 23.133-15 43 45.78   ~87Ko 21.60wXNEOCPF52
     P22oVW7 3C2026 08 08.49442423 23 47.815-15 51 56.19   ~88CK 21.66GVNEOCPT14
     P22oVW7 3C2026 08 08.49562623 23 47.767-15 51 56.87   ~88CK 21.59GVNEOCPT14
     P22oVW7 3C2026 08 08.49683223 23 47.723-15 51 57.43   ~88CK 21.72GVNEOCPT14

Station data:
(F52) Pan-STARRS 2, Haleakala  (N20.707382 W156.255910)  US/Hawaii.
   Observers J. Herman, T. Lowe, P. Minguez, A. Schultz, I. Smith. Measurers
   K. Chambers, T. de Boer, J. Fairlamb, H. Gao, M. Huber, C.-C. Lin, E.
   Magnier, Y. Ramanjooloo, R. Wainscoat, R. Weryk. 1.8-m Ritchey-Chrétien +
   CCD.
(T14) Mauna Kea-UH/Tholen NEO Follow-Up (CFHT)  (N19.825252 W155.468876)
   US/Hawaii.  Observer R. Weryk. 3.6-m Canada-France-Hawaii Telescope.

Orbital elements:  P22oVW7
   Perihelion 2027 Feb 24.198126 +/- 366 TT =  4:45:18.1 (JD 2461460.698126)
Epoch 2026 Aug  8.0 TT = JDT 2461260.5   Earth MOID: 0.0545   Ju: 0.2760
M 322.335685432 +/- 80              Ve: 0.0832                   AutoNEOCP
n   0.188135200 +/- 0.135           Peri.   29.793972 +/- 60
a   3.016402852 +/- 1.44            Node    73.610410 +/- 38
e   0.73537353 +/- 0.231            Incl.    7.162180 +/- 18
P   5.23883                H 17.83  G  0.15   U 11.5  SR
q 0.798220010 +/- 0.71    Q 5.234585694 +/- 4.76          (J2000 ecliptic)
From 6 observations 2026 Aug. 7-8 (24.5 hr); mean residual 0".10
Residuals in arcseconds: 
260807 F52  .17+  .05+    260807 F52  .18-  .19-    260808 T14  .02-  .04-    
260807 F52  .00   .14+    260808 T14  .01+  .04+    260808 T14  .02+  .00     

Ephemerides (geocentric):
Date (UTC) HH   RA             Dec           delta  r     elong  mag " sig PA
---- --------  ------------   ------------  ------ ------ -----  --- --------
2026 08 08 13  23 23 46.024   -15 52 16.71  1.6707 2.5898 148.5 21.7 2.75  23
2026 08 08 14  23 23 44.502   -15 52 37.45  1.6701 2.5894 148.5 21.7 2.81  28
2026 08 08 15  23 23 42.977   -15 52 58.22  1.6694 2.5891 148.6 21.7 2.90  33
2026 08 08 16  23 23 41.449   -15 53 19.00  1.6688 2.5887 148.6 21.7 3.02  39
2026 08 08 17  23 23 39.918   -15 53 39.80  1.6682 2.5884 148.6 21.7 3.18  45
2026 08 08 18  23 23 38.383   -15 54 00.61  1.6676 2.5880 148.7 21.7 3.38  50
2026 08 08 19  23 23 36.845   -15 54 21.45  1.6670 2.5877 148.7 21.7 3.62  56
2026 08 08 20  23 23 35.303   -15 54 42.30  1.6664 2.5874 148.8 21.7 3.91  62
2026 08 08 21  23 23 33.759   -15 55 03.16  1.6658 2.5870 148.8 21.7 4.24  67
2026 08 08 22  23 23 32.210   -15 55 24.05  1.6651 2.5867 148.9 21.7 4.62  72
2026 08 08 23  23 23 30.659   -15 55 44.95  1.6645 2.5863 148.9 21.7 5.05  77
2026 08 09 00  23 23 29.104   -15 56 05.87  1.6639 2.5860 148.9 21.7 5.51  81
2026 08 09 01  23 23 27.546   -15 56 26.81  1.6633 2.5856 149.0 21.7 6.02  84
2026 08 09 02  23 23 25.985   -15 56 47.76  1.6627 2.5853 149.0 21.7 6.56  87
2026 08 09 03  23 23 24.420   -15 57 08.74  1.6621 2.5849 149.1 21.7 7.13  89
2026 08 09 04  23 23 22.852   -15 57 29.73  1.6615 2.5846 149.1 21.7 7.73  91
2026 08 09 05  23 23 21.280   -15 57 50.73  1.6609 2.5842 149.2 21.7 8.37  93
2026 08 09 06  23 23 19.705   -15 58 11.76  1.6603 2.5839 149.2 21.7 9.03  94
2026 08 09 07  23 23 18.127   -15 58 32.80  1.6597 2.5835 149.3 21.7 9.72  96
2026 08 09 08  23 23 16.546   -15 58 53.85  1.6590 2.5832 149.3 21.7 10.4  97
2026 08 09 09  23 23 14.961   -15 59 14.93  1.6584 2.5828 149.3 21.7 11.2  98
2026 08 09 10  23 23 13.373   -15 59 36.02  1.6578 2.5825 149.4 21.7 12.0  99
2026 08 09 11  23 23 11.781   -15 59 57.13  1.6572 2.5821 149.4 21.7 12.8 100
2026 08 09 12  23 23 10.187   -16 00 18.26  1.6566 2.5818 149.5 21.7 13.6 100
2026 08 09 13  23 23 08.588   -16 00 39.40  1.6560 2.5814 149.5 21.7 14.4 101
2026 08 09 14  23 23 06.987   -16 01 00.56  1.6554 2.5811 149.6 21.7 15.3 102
2026 08 09 15  23 23 05.382   -16 01 21.74  1.6548 2.5807 149.6 21.7 16.2 102
2026 08 09 16  23 23 03.774   -16 01 42.94  1.6542 2.5804 149.6 21.7 17.1 103
2026 08 09 17  23 23 02.162   -16 02 04.15  1.6536 2.5801 149.7 21.7 18.1 103
2026 08 09 18  23 23 00.547   -16 02 25.38  1.6530 2.5797 149.7 21.7 19.0 104
2026 08 09 19  23 22 58.929   -16 02 46.62  1.6524 2.5794 149.8 21.7 20.0 104
2026 08 09 20  23 22 57.308   -16 03 07.89  1.6518 2.5790 149.8 21.7 21.1 104
2026 08 09 21  23 22 55.683   -16 03 29.16  1.6512 2.5787 149.9 21.7 22.1 105
2026 08 09 22  23 22 54.055   -16 03 50.46  1.6506 2.5783 149.9 21.7 23.2 105
2026 08 09 23  23 22 52.423   -16 04 11.77  1.6500 2.5780 150.0 21.7 24.3 105
2026 08 10 00  23 22 50.788   -16 04 33.11  1.6494 2.5776 150.0 21.7 25.4 105
2026 08 10 01  23 22 49.150   -16 04 54.45  1.6488 2.5773 150.0 21.7 26.6 106
2026 08 10 02  23 22 47.508   -16 05 15.82  1.6482 2.5769 150.1 21.7 27.7 106
2026 08 10 03  23 22 45.863   -16 05 37.20  1.6476 2.5766 150.1 21.7 28.9 106
2026 08 10 04  23 22 44.215   -16 05 58.59  1.6470 2.5762 150.2 21.7 30.2 106
2026 08 10 05  23 22 42.563   -16 06 20.01  1.6464 2.5759 150.2 21.7 31.4 106
2026 08 10 06  23 22 40.908   -16 06 41.44  1.6458 2.5755 150.3 21.7 32.7 107
2026 08 10 07  23 22 39.250   -16 07 02.89  1.6452 2.5752 150.3 21.7 34.0 107
2026 08 10 08  23 22 37.588   -16 07 24.35  1.6446 2.5748 150.4 21.7 35.3 107
2026 08 10 09  23 22 35.923   -16 07 45.83  1.6440 2.5745 150.4 21.7 36.7 107
2026 08 10 10  23 22 34.254   -16 08 07.33  1.6434 2.5741 150.4 21.7 38.0 107
2026 08 10 11  23 22 32.582   -16 08 28.85  1.6428 2.5738 150.5 21.7 39.4 107
2026 08 10 12  23 22 30.907   -16 08 50.38  1.6422 2.5734 150.5 21.7 40.8 107